Regional Weather Roundup
Issued by NWS

Home | Current Version | Previous Version | Text Only | Print | Product List | Glossary On
Versions: 1 2 3 4 5 6 7 8 9 10 11 12 13 14 15 16 17 18 19 20 21 22 23 24 25 26 27 28 29 30 31 32 33 34 35 36 37 38 39 40 41 42 43 44 45 46 47 48 49 50
165
ASUS43 KLSX 291259
RWRMO

WEATHER SUMMARY FOR MISSOURI
NATIONAL WEATHER SERVICE SPRINGFIELD MO
800 AM CDT THU JUN 29 2017

NOTE: "FAIR" INDICATES FEW OR NO CLOUDS BELOW 12,000 FEET WITH NO
       SIGNIFICANT WEATHER AND/OR OBSTRUCTIONS TO VISIBILITY.
       CURRENT SKY AND/OR WEATHER CONDITIONS ARE NOT AVAILABLE FOR
       CHILLICOTHE AND FARMINGTON.

MOZ001>031-035>038-043-044-053-054-291400-
...NORTHERN AND WESTERN MISSOURI...

CITY           SKY/WX    TMP DP  RH WIND       PRES   REMARKS
KANSAS CTY INT RAIN      66  65  96 E12       29.89F FOG
KANSAS C DTWN  TSTM      67  66  97 NE13      29.88R FOG
LEE`S SUMMIT   TSTM      73  68  84 SE12      29.88R
ST JOSEPH      RAIN      68  68 100 SE17      29.82F FOG
CHILLICOTHE      N/A     68  66  93 SW9       29.89R

$$
MOZ066>068-077>081-088>096-101>105-291400-
...SOUTHWEST MISSOURI...

CITY           SKY/WX    TMP DP  RH WIND       PRES   REMARKS
SPRINGFIELD    SUNNY     74  68  81 SE13      29.93R
JOPLIN         SUNNY     77  70  79 S12       29.89S
BRANSON        PTSUNNY   73  68  83 SE8       29.95F

$$
MOZ032>034-039>042-045>050-055>058-069>072-291400-
...CENTRAL MISSOURI...

CITY           SKY/WX    TMP DP  RH WIND       PRES   REMARKS
COLUMBIA       LGT RAIN  67  64  90 SE9       29.94S
JEFFERSON CITY CLOUDY    70  62  76 E5        29.94S
ROLLA          CLOUDY    74  66  76 VRB5      29.96S
SEDALIA        CLOUDY    74  66  76 E10       29.91F
WARRENSBURG    CLOUDY    70  63  78 E7        29.89R
OSAGE BEACH    CLOUDY    74  67  78 S6        29.94S

$$
MOZ051-052-059>065-291400-
...EAST CENTRAL MISSOURI...

CITY           SKY/WX    TMP DP  RH WIND       PRES   REMARKS
ST LOUIS INTL  CLOUDY    78  64  61 SW14      29.90F
SPIRIT OF STL  CLOUDY    71  67  87 SW7       29.91S
ST CHARLES     PTSUNNY   74  65  73 SW8       29.89S

$$
MOZ072>076-082>087-097>100-106>115-291400-
...SOUTH CENTRAL AND SOUTHEAST MISSOURI...

CITY           SKY/WX    TMP DP  RH WIND       PRES   REMARKS
CAPE GIRARDEAU MOSUNNY   75  68  78 S13       29.98F
FARMINGTON     SUNNY     74  68  81 S8        29.98F
POPLAR BLUFF   PTSUNNY   74  70  87 S6        29.98S
WEST PLAINS    SUNNY     71  66  84 SE7       29.99F

$$




USA.gov is the U.S. government's official web portal to all federal, state and local government web resources and services.